Back to catalog

STARLINK-5137

AliveCommunicationsVLEO
NORAD 53975·PAYLOAD·🇺🇸 United States

Launched Oct 5, 2022 from Vandenberg Space Force Base

Loading…

Next Passes (next 24 hours)

TLE

FreshSource: CelesTrak SupGP

Epoch: Sep 14, 2026, 21:17 UTC

1 53975C 22125M   26257.88729167  .00013064  00000+0  81946-3 0  2572
2 53975  53.1577  88.7280 0001695  90.8232 170.4531 15.08818609    15

Track STARLINK-5137 in real time with AllMySat

Download on the App Store